Regional Weather Roundup
Issued by NWS

Home | Current Version | Previous Version | Graphics & Text | Print | Product List | Glossary On
Versions: 1 2 3 4 5 6 7 8 9 10 11 12 13 14 15 16 17 18 19 20 21 22 23 24 25 26 27 28 29 30 31 32 33 34 35 36 37 38 39 40 41 42 43 44 45 46 47 48 49 50
000
ASUS43 KBIS 051210
RWRND

NORTH DAKOTA REGIONAL WEATHER ROUNDUP
NATIONAL WEATHER SERVICE BISMARCK ND
700 AM CDT TUE MAY 05 2015

NOTE: "FAIR" INDICATES FEW OR NO CLOUDS BELOW 12,000 FEET WITH NO
SIGNIFICANT WEATHER AND/OR OBSTRUCTIONS TO VISIBILITY.


NDZ001>003-009>011-017-051300-
NORTHWEST NORTH DAKOTA

CITY           SKY/WX    TMP DP  RH WIND       PRES   REMARKS
WILLISTON      CLEAR     50  28  42 VRB3      29.95F
6HR MIN TEMP:  49; 6HR MAX TEMP:  54;

MINOT          MOCLDY    53  29  39 SE12      30.03S
MINOT AFB      PTCLDY    52  31  45 S14       30.02S
$$

NDZ018>021-031>035-040>046-051300-
SOUTHWEST NORTH DAKOTA

CITY           SKY/WX    TMP DP  RH WIND       PRES   REMARKS
BISMARCK       CLOUDY    51  30  44 SE12      30.06F
6HR MIN TEMP:  50; 6HR MAX TEMP:  53;

DICKINSON      CLEAR     40  29  64 SE9       29.97F
GARRISON         N/A     52  31  44 SE13      30.02F
6HR MIN TEMP:  50; 6HR MAX TEMP:  53;

HETTINGER ARPT CLEAR     44  29  55 SE9       30.01F
$$

NDZ004>008-012>016-024-026-027-054-051300-
NORTHEAST NORTH DAKOTA

CITY           SKY/WX    TMP DP  RH WIND       PRES   REMARKS
GRAND FORKS    PTCLDY    40  29  64 S6        30.17R
GRND FRKS AFB  FAIR      38  26  61 S8        30.16R
DEVILS LAKE    CLOUDY    54  34  47 S10       30.13R
$$

NDZ022-023-025-028>030-036>039-047>053-051300-
SOUTHEAST NORTH DAKOTA

CITY           SKY/WX    TMP DP  RH WIND       PRES   REMARKS
FARGO          CLEAR     48  31  51 SE8       30.18R
6HR MIN TEMP:  46; 6HR MAX TEMP:  51;

JAMESTOWN      PTCLDY    48  29  47 S8        30.14S
$$




USA.gov is the U.S. government's official web portal to all federal, state and local government web resources and services.